(2016 DB1) |
Classification: Apollo [NEO] SPK-ID: 3744802 |
[ hide orbit diagram ]
For accurate long-term ephemerides, please instead use our Horizons system.This orbit viewer was implemented using two-body methods, and hence should not be used for determining accurate long-term trajectories (over several years or decades) or planetary encounter circumstances.
Orbital Elements at Epoch 2459000.5 (2020-May-31.0) TDB
Reference: JPL 7 (heliocentric ecliptic J2000)
Element | Value | Uncertainty (1-sigma) | Units |
e | .1894347473227528 | 5.2366e-05 | |
a | 1.190513522385395 | 7.4368e-05 | au |
q | .9649888940879973 | 2.2197e-06 | au |
i | 12.92140742607495 | 0.0028059 | deg |
node | 337.618831835195 | 7.5552e-05 | deg |
peri | 138.5571263676373 | 0.0024762 | deg |
M | 128.0914523111251 | 0.11651 | deg |
tp | 2458831.682457122205 (2019-Dec-14.18245712) | 0.13773 | TDB |
period | 474.4603510965715 1.30 | 0.044457 0.0001217 | d yr |
n | .7587567626419551 | 7.1096e-05 | deg/d |
Q | 1.416038150682792 | 8.8456e-05 | au |
|
| | Orbit Determination Parameters
Additional Information
|
[ show covariance matrix ]
Physical Parameter Table
Parameter |
Symbol |
Value |
Units |
Sigma |
Reference |
Notes |
absolute magnitude |
H |
26.5 |
|
n/a |
MPO370743 |
|
|
[ show close-approach data ]
|